This is the latest recevied weather packets stored in our database for station/object IW2NTF-3. If no packets are shown the sender has not sent any weather packets the latest 10 day(s).
| Time | Temp. | Humidity | Pressure | Rain* | Wind** | Luminosity | Snow |
|---|---|---|---|---|---|---|---|
| 1787897523 | 23.89° C | 79% | 1017 hPa | 0 mm | - | 91 W/m² | - |
| 1787897463 | 23.89° C | 79% | 1017 hPa | 0 mm | - | 91 W/m² | - |
| 1787897403 | 23.89° C | 79% | 1017 hPa | 0 mm | - | 93 W/m² | - |
| 1787897344 | 23.89° C | 79% | 1017 hPa | 0 mm | - | 93 W/m² | - |
| 1787897283 | 23.89° C | 78% | 1017 hPa | 0 mm | - | 93 W/m² | - |
| 1787897226 | 23.89° C | 78% | 1017 hPa | 0 mm | - | 91 W/m² | - |
| 1787897164 | 23.89° C | 78% | 1017.1 hPa | 0 mm | - | 90 W/m² | - |
| 1787897103 | 23.89° C | 78% | 1017.1 hPa | 0 mm | - | 90 W/m² | - |
| 1787897043 | 23.89° C | 78% | 1017.2 hPa | 0 mm | - | 88 W/m² | - |
| 1787896983 | 23.89° C | 78% | 1017.3 hPa | 0 mm | - | 84 W/m² | - |
| 1787896923 | 24.44° C | 78% | 1017.3 hPa | 0 mm | - | 81 W/m² | - |
| 1787896863 | 24.44° C | 78% | 1017.3 hPa | 0 mm | - | 76 W/m² | - |
| 1787896812 | 24.44° C | 77% | 1017.3 hPa | 0 mm | - | 69 W/m² | - |
| 1787896743 | 24.44° C | 77% | 1017.6 hPa | 0 mm | - | 62 W/m² | - |
| 1787896683 | 24.44° C | 77% | 1017.8 hPa | 0 mm | - | 51 W/m² | - |
| 1787896623 | 24.44° C | 78% | 1017.8 hPa | 0 mm | - | 49 W/m² | - |
| 1787896563 | 24.44° C | 77% | 1017.8 hPa | 0 mm | - | 49 W/m² | - |
| 1787896503 | 24.44° C | 77% | 1017.8 hPa | 0 mm | - | 47 W/m² | - |
| 1787896443 | 23.89° C | 77% | 1018 hPa | 0 mm | - | 44 W/m² | - |
| 1787896383 | 23.89° C | 77% | 1018 hPa | 0 mm | - | 40 W/m² | - |
| 1787896323 | 23.89° C | 77% | 1018 hPa | 0 mm | - | 37 W/m² | - |
| 1787896263 | 23.89° C | 77% | 1018.1 hPa | 0 mm | - | 32 W/m² | - |
| 1787896203 | 23.89° C | 77% | 1018 hPa | 0 mm | - | 30 W/m² | - |
| 1787896143 | 23.89° C | 77% | 1018 hPa | 0 mm | - | 28 W/m² | - |
| 1787896083 | 23.89° C | 77% | 1017.9 hPa | 0 mm | - | 30 W/m² | - |
* Rain latest hour (hover to see other rain measurements)
** Current wind speed in m/s (hover to see current wind gust speed)